Location: Unspecified
(0.0000°N, 0.0000°E)
Time: 19:00:49
(UTC+00:00)

Vanguard 2 Rocket - Pass Details

Date: 28 November 2019
Orbit: 554 x 3326 km, 32.9° (Epoch: 09 December)

Event Time Altitude Azimuth Distance (km) Brightness Sun altitude
Rises 11:39:54 0° 235° (SW) 6,589 11.4 68.6°
Reaches altitude 10° 11:46:39 10° 218° (SW) 5,958 11.4 68.7°
Maximum altitude 11:58:32 19° 180° (S) 5,555 11.6 68.5°
Drops below altitude 10° 12:10:44 10° 141° (SE) 6,123 11.4 68.0°
Sets 12:17:52 0° 124° (SE) 6,826 11.4 67.5°
